Orr, MN

11:43 AM CDT on March 23, 2017 (GMT -0500)
Orr Regional

Weather History for KORB - May, 2014

Change the Weather History Date:

Sunday, May 11, 2014

  Actual Average Record
Temperature  
Mean Temperature 60 °F -  
Max Temperature 73 °F 59 °F 80 °F (2011)
Min Temperature 46 °F 35 °F 30 °F (2002)
Degree Days  
Heating Degree Days 6    
Growing Degree Days 10 (Base 50)    
Moisture  
Dew Point 42 °F    
Average Humidity 55    
Maximum Humidity 93    
Minimum Humidity 27    
Precipitation  
Precipitation 0.00 in - - ()
Sea Level Pressure  
Sea Level Pressure 29.86 in    
Wind  
Wind Speed 5 mph (SE)    
Max Wind Speed 14 mph    
Max Gust Speed 18 mph    
Visibility 10 miles    
Events Rain    
Averages and records for this station are not official NWS values.
T = Trace of Precipitation, MM = Missing Value Source: NWS Daily Summary

Daily Weather History Graph

Daily Weather History Graph

Search for Another Location

Airport or City:

Trip Planner

Search our weather history database for the weather conditions in past years. The results will help you decide how hot, cold, wet, or windy it might be!

Date:

Astronomy

May. 11, 2014 Rise Set
Actual Time 5:37 AM CDT 8:38 PM CDT
Civil Twilight 5:01 AM CDT 9:15 PM CDT
Nautical Twilight 4:14 AM CDT 10:02 PM CDT
Astronomical Twilight 3:17 AM CDT 11:00 PM CDT
Moon 5:21 PM CDT (5/11) 3:59 AM CDT (5/11)
Length of Visible Light 16h 13m
Length of Day
15h 00m
Waxing Gibbous, 89% of the Moon is Illuminated
May 11
Waxing Gibbous
May 14
Full
May 21
Last Quarter
May 28
New
Jun 5
First Quarter

Hourly Weather History & Observations

Time (CDT) Temp. Windchill Dew Point Humidity Pressure Visibility Wind Dir Wind Speed Gust Speed Precip Events Conditions
12:14 AM 51.8 °F - 24.8 °F 35% 29.83 in 10.0 mi ESE 4.6 mph - N/A   Scattered Clouds
12:34 AM 53.6 °F - 24.8 °F 33% 29.83 in 10.0 mi ESE 4.6 mph - N/A   Mostly Cloudy
12:53 AM 53.6 °F - 26.6 °F 35% 29.83 in 10.0 mi ESE 3.5 mph - N/A   Overcast
1:14 AM 53.6 °F - 26.6 °F 35% 29.83 in 10.0 mi SE 4.6 mph - N/A   Overcast
1:33 AM 51.8 °F - 28.4 °F 41% 29.83 in 10.0 mi SSE 4.6 mph - N/A   Overcast
1:53 AM 51.8 °F - 28.4 °F 41% 29.83 in 10.0 mi SSE 5.8 mph - N/A   Overcast
2:13 AM 51.8 °F - 30.2 °F 44% 29.83 in 10.0 mi SE 4.6 mph - N/A   Scattered Clouds
2:33 AM 51.8 °F - 30.2 °F 44% 29.83 in 10.0 mi SE 4.6 mph - N/A   Clear
2:54 AM 51.8 °F - 33.8 °F 50% 29.84 in 10.0 mi SE 3.5 mph - N/A   Scattered Clouds
3:14 AM 50.0 °F - 35.6 °F 58% 29.85 in 10.0 mi SSE 5.8 mph - N/A   Mostly Cloudy
3:33 AM 51.8 °F - 39.2 °F 62% 29.85 in 10.0 mi SSE 4.6 mph - N/A Rain Rain
3:53 AM 48.2 °F - 42.8 °F 82% 29.85 in 10.0 mi Calm Calm - N/A Rain Light Rain
4:13 AM 48.2 °F - 44.6 °F 87% 29.85 in 7.0 mi Calm Calm - N/A Rain Light Rain
4:33 AM 46.4 °F - 44.6 °F 93% 29.85 in 10.0 mi Calm Calm - N/A Rain Light Rain
4:54 AM 46.4 °F 45.2 °F 44.6 °F 93% 29.85 in 10.0 mi ESE 3.5 mph - N/A   Overcast
5:13 AM 48.2 °F - 44.6 °F 87% 29.85 in 10.0 mi Calm Calm - N/A   Overcast
5:34 AM 46.4 °F - 44.6 °F 93% 29.85 in 7.0 mi Calm Calm - N/A   Overcast
5:53 AM 46.4 °F - 44.6 °F 93% 29.85 in 10.0 mi Calm Calm - N/A   Overcast
6:13 AM 46.4 °F - 44.6 °F 93% 29.85 in 7.0 mi Calm Calm - N/A   Overcast
6:33 AM 48.2 °F - 44.6 °F 87% 29.85 in 10.0 mi East 3.5 mph - N/A   Overcast
6:53 AM 48.2 °F - 46.4 °F 93% 29.87 in 10.0 mi ESE 4.6 mph - N/A   Overcast
7:13 AM 48.2 °F - 46.4 °F 93% 29.89 in 10.0 mi SE 3.5 mph - N/A   Overcast
7:34 AM 48.2 °F - 46.4 °F 93% 29.89 in 10.0 mi Calm Calm - N/A   Mostly Cloudy
7:54 AM 51.8 °F - 48.2 °F 88% 29.89 in 10.0 mi ESE 3.5 mph - N/A   Scattered Clouds
8:13 AM 53.6 °F - 48.2 °F 82% 29.89 in 10.0 mi ESE 3.5 mph - N/A   Scattered Clouds
8:34 AM 55.4 °F - 50.0 °F 82% 29.89 in 10.0 mi ESE 5.8 mph - N/A   Clear
8:53 AM 57.2 °F - 48.2 °F 72% 29.87 in 10.0 mi ESE 3.5 mph - N/A   Clear
9:13 AM 57.2 °F - 48.2 °F 72% 29.87 in 10.0 mi SE 5.8 mph - N/A   Clear
9:33 AM 60.8 °F - 48.2 °F 63% 29.86 in 10.0 mi East 4.6 mph - N/A   Clear
9:53 AM 60.8 °F - 48.2 °F 63% 29.86 in 10.0 mi ESE 8.1 mph - N/A   Clear
10:14 AM 62.6 °F - 48.2 °F 59% 29.87 in 10.0 mi SE 5.8 mph - N/A   Clear
10:33 AM 62.6 °F - 46.4 °F 55% 29.87 in 10.0 mi ESE 5.8 mph - N/A   Clear
10:53 AM 64.4 °F - 46.4 °F 52% 29.88 in 10.0 mi SE 9.2 mph - N/A   Clear
11:14 AM 64.4 °F - 46.4 °F 52% 29.89 in 10.0 mi East 8.1 mph - N/A   Scattered Clouds
11:33 AM 66.2 °F - 48.2 °F 52% 29.89 in 10.0 mi SE 8.1 mph - N/A   Scattered Clouds
11:53 AM 69.8 °F - 48.2 °F 46% 29.88 in 10.0 mi SSE 10.4 mph - N/A   Scattered Clouds
12:14 PM 66.2 °F - 46.4 °F 49% 29.87 in 10.0 mi ESE 8.1 mph - N/A   Scattered Clouds
12:33 PM 69.8 °F - 46.4 °F 43% 29.87 in 10.0 mi SE 8.1 mph - N/A   Scattered Clouds
12:53 PM 69.8 °F - 46.4 °F 43% 29.86 in 10.0 mi ESE 6.9 mph - N/A   Scattered Clouds
1:13 PM 68.0 °F - 46.4 °F 46% 29.86 in 10.0 mi SE 3.5 mph - N/A   Mostly Cloudy
1:34 PM 71.6 °F - 44.6 °F 38% 29.86 in 10.0 mi SE 5.8 mph - N/A   Mostly Cloudy
1:53 PM 68.0 °F - 44.6 °F 43% 29.85 in 10.0 mi Calm Calm - N/A   Mostly Cloudy
2:13 PM 69.8 °F - 44.6 °F 40% 29.85 in 10.0 mi Calm Calm - N/A   Overcast
2:33 PM 69.8 °F - 44.6 °F 40% 29.85 in 10.0 mi East 5.8 mph - N/A   Mostly Cloudy
2:54 PM 71.6 °F - 42.8 °F 35% 29.84 in 10.0 mi ESE 4.6 mph - N/A   Mostly Cloudy
3:13 PM 69.8 °F - 42.8 °F 38% 29.84 in 10.0 mi SE 3.5 mph - N/A   Mostly Cloudy
3:33 PM 69.8 °F - 41.0 °F 35% 29.84 in 10.0 mi ESE 4.6 mph - N/A   Mostly Cloudy
3:53 PM 71.6 °F - 42.8 °F 35% 29.84 in 10.0 mi Calm Calm - N/A   Mostly Cloudy
4:13 PM 71.6 °F - 41.0 °F 33% 29.83 in 10.0 mi East 5.8 mph - N/A   Mostly Cloudy
4:34 PM 69.8 °F - 42.8 °F 38% 29.84 in 10.0 mi ESE 4.6 mph - N/A   Mostly Cloudy
4:54 PM 69.8 °F - 42.8 °F 38% 29.84 in 10.0 mi ESE 6.9 mph - N/A   Mostly Cloudy
5:14 PM 71.6 °F - 41.0 °F 33% 29.84 in 10.0 mi ESE 3.5 mph - N/A   Overcast
5:33 PM 73.4 °F - 37.4 °F 27% 29.83 in 10.0 mi SE 8.1 mph - N/A   Mostly Cloudy
5:53 PM 71.6 °F - 39.2 °F 31% 29.84 in 10.0 mi ESE 5.8 mph - N/A   Mostly Cloudy
6:14 PM 71.6 °F - 39.2 °F 31% 29.84 in 10.0 mi SE 8.1 mph 18.4 mph N/A   Overcast
6:34 PM 69.8 °F - 41.0 °F 35% 29.84 in 10.0 mi SSE 12.7 mph 18.4 mph N/A   Scattered Clouds
6:53 PM 69.8 °F - 42.8 °F 38% 29.84 in 10.0 mi SE 13.8 mph 18.4 mph N/A   Scattered Clouds
7:13 PM 68.0 °F - 42.8 °F 40% 29.85 in 10.0 mi SE 9.2 mph 16.1 mph N/A   Clear
7:33 PM 66.2 °F - 42.8 °F 43% 29.84 in 10.0 mi SE 6.9 mph - N/A   Clear
7:53 PM 66.2 °F - 42.8 °F 43% 29.85 in 10.0 mi SE 4.6 mph - N/A   Clear
8:13 PM 64.4 °F - 42.8 °F 45% 29.85 in 10.0 mi SE 6.9 mph - N/A   Clear
8:34 PM 62.6 °F - 42.8 °F 48% 29.85 in 10.0 mi SE 3.5 mph - N/A   Clear
8:53 PM 62.6 °F - 42.8 °F 48% 29.86 in 10.0 mi ESE 4.6 mph - N/A   Clear
9:13 PM 60.8 °F - 42.8 °F 52% 29.86 in 10.0 mi ESE 5.8 mph - N/A   Clear
9:34 PM 60.8 °F - 41.0 °F 48% 29.86 in 10.0 mi ESE 5.8 mph - N/A   Clear
9:54 PM 60.8 °F - 41.0 °F 48% 29.88 in 10.0 mi ESE 4.6 mph - N/A   Clear
10:14 PM 59.0 °F - 41.0 °F 51% 29.88 in 10.0 mi ESE 5.8 mph - N/A   Clear
10:33 PM 57.2 °F - 41.0 °F 55% 29.89 in 10.0 mi ESE 5.8 mph - N/A   Clear
11:13 PM 55.4 °F - 39.2 °F 54% 29.93 in 10.0 mi ESE 5.8 mph - N/A   Scattered Clouds
11:34 PM 55.4 °F - 39.2 °F 54% 29.92 in 10.0 mi ESE 5.8 mph - N/A   Mostly Cloudy
11:53 PM 53.6 °F - 42.8 °F 67% 29.93 in 10.0 mi ESE 3.5 mph - N/A Rain Light Rain